Chapel Hill, NC

7:00 PM EST on January 23, 2018 (GMT -0500)
Williams

Weather History for KIGX - October, 2012

Change the Weather History Date:

Monday, October 15, 2012

  Actual Average Record
Temperature  
Mean Temperature 62 °F -  
Max Temperature 71 °F 74 °F 87 °F (2008)
Min Temperature 55 °F 44 °F 27 °F (1988)
Degree Days  
Heating Degree Days 2    
Growing Degree Days 12 (Base 50)    
Moisture  
Dew Point 61 °F    
Average Humidity 87    
Maximum Humidity 94    
Minimum Humidity 59    
Precipitation  
Precipitation 0.20 in - - ()
Sea Level Pressure  
Sea Level Pressure 29.84 in    
Wind  
Wind Speed 2 mph (West)    
Max Wind Speed 7 mph    
Max Gust Speed -    
Visibility 9 miles    
Events Rain    
Averages and records for this station are not official NWS values.
T = Trace of Precipitation, MM = Missing Value Source: NWS Daily Summary

Daily Weather History Graph

Daily Weather History Graph

Search for Another Location

Airport or City:

Trip Planner

Search our weather history database for the weather conditions in past years. The results will help you decide how hot, cold, wet, or windy it might be!

Date:

Astronomy

Oct. 15, 2012 Rise Set
Actual Time 7:23 AM EDT 6:39 PM EDT
Civil Twilight 6:57 AM EDT 7:05 PM EDT
Nautical Twilight 6:27 AM EDT 7:35 PM EDT
Astronomical Twilight 5:58 AM EDT 8:05 PM EDT
Moon 7:29 AM EDT (10/15) 6:40 PM EDT (10/15)
Length of Visible Light 12h 08m
Length of Day
11h 16m
New Moon, 0% of the Moon is Illuminated
Oct 15
New Moon
Oct 21
First Quarter
Oct 29
Full
Nov 6
Last Quarter
Nov 13
New

Hourly Weather History & Observations

Time (EDT) Temp. Dew Point Humidity Pressure Visibility Wind Dir Wind Speed Gust Speed Precip Events Conditions
1:56 AM 64.9 °F 57.0 °F 75% 30.01 in 10.0 mi Calm Calm - N/A   Mostly Cloudy
2:56 AM 64.0 °F 57.9 °F 80% 29.98 in 10.0 mi Variable 4.6 mph - N/A   Scattered Clouds
3:56 AM 64.0 °F 57.9 °F 80% 29.95 in 10.0 mi Variable 3.5 mph - N/A   Overcast
4:56 AM 63.0 °F 57.9 °F 84% 29.94 in 10.0 mi Calm Calm - N/A   Scattered Clouds
5:56 AM 63.0 °F 59.0 °F 87% 29.93 in 10.0 mi Calm Calm - N/A   Clear
6:56 AM 63.0 °F 59.0 °F 87% 29.92 in 10.0 mi Variable 3.5 mph - N/A   Scattered Clouds
8:56 AM 63.0 °F 61.0 °F 93% 29.93 in 10.0 mi Calm Calm - 0.01 in   Overcast
9:56 AM 64.0 °F 61.0 °F 90% 29.92 in 10.0 mi Calm Calm - N/A   Overcast
10:56 AM 64.9 °F 62.1 °F 90% 29.89 in 10.0 mi Calm Calm - 0.02 in Rain Light Rain
11:19 AM 64.4 °F 62.6 °F 94% 29.91 in 10.0 mi Calm Calm - 0.01 in   Overcast
11:42 AM 64.4 °F 62.6 °F 94% 29.92 in 10.0 mi West 3.5 mph - 0.02 in Rain Light Rain
11:56 AM 64.9 °F 62.1 °F 90% 29.86 in 9.0 mi East 3.5 mph - 0.04 in Rain Light Rain
12:05 PM 64.4 °F 62.6 °F 94% 29.87 in 10.0 mi Calm Calm - 0.01 in Rain Light Rain
12:52 PM 66.2 °F 64.4 °F 94% 29.85 in 4.0 mi Calm Calm - 0.08 in Rain Rain
12:56 PM 66.0 °F 64.0 °F 93% 29.83 in 5.0 mi Calm Calm - 0.09 in Rain Light Rain
1:08 PM 66.2 °F 64.4 °F 94% 29.83 in 8.0 mi Calm Calm - 0.01 in Rain Light Rain
1:15 PM 66.2 °F 64.4 °F 94% 29.84 in 10.0 mi Calm Calm - 0.01 in Rain Light Rain
1:24 PM 66.2 °F 64.4 °F 94% 29.83 in 9.0 mi Variable 4.6 mph - 0.01 in Rain Light Rain
1:32 PM 66.2 °F 64.4 °F 94% 29.82 in 7.0 mi Calm Calm - 0.02 in Rain Light Rain
1:36 PM 66.2 °F 64.4 °F 94% 29.82 in 2.0 mi South 3.5 mph - 0.08 in Rain Rain
1:42 PM 66.2 °F 64.4 °F 94% 29.82 in 1.2 mi Calm Calm - 0.14 in Rain Heavy Rain
2:01 PM 66.2 °F 64.4 °F 94% 29.80 in 10.0 mi Variable 3.5 mph - N/A   Mostly Cloudy
2:13 PM 69.8 °F 66.2 °F 88% 29.79 in 10.0 mi Calm Calm - 0.01 in   Mostly Cloudy
2:24 PM 68.0 °F 64.4 °F 88% 29.79 in 10.0 mi Variable 3.5 mph - 0.01 in   Mostly Cloudy
2:56 PM 69.1 °F 64.9 °F 87% 29.75 in 10.0 mi Variable 4.6 mph - 0.01 in Rain Light Rain
3:10 PM 69.8 °F 64.4 °F 83% 29.76 in 10.0 mi Variable 3.5 mph - 0.00 in   Overcast
3:19 PM 68.0 °F 64.4 °F 88% 29.76 in 10.0 mi Variable 3.5 mph - 0.00 in Rain Light Rain
3:25 PM 68.0 °F 64.4 °F 88% 29.76 in 10.0 mi Variable 3.5 mph - 0.00 in Rain Light Rain
3:32 PM 68.0 °F 64.4 °F 88% 29.76 in 3.0 mi Variable 3.5 mph - 0.03 in Rain Rain
3:39 PM 68.0 °F 64.4 °F 88% 29.76 in 4.0 mi Variable 5.8 mph - 0.03 in Rain Light Rain
3:51 PM 68.0 °F 64.4 °F 88% 29.76 in 10.0 mi Calm Calm - 0.03 in   Overcast
3:56 PM 68.0 °F 66.0 °F 93% 29.74 in 10.0 mi Variable 3.5 mph - 0.03 in   Overcast
4:56 PM 70.0 °F 64.9 °F 84% 29.73 in 10.0 mi WSW 4.6 mph - N/A   Partly Cloudy
5:56 PM 69.1 °F 64.0 °F 84% 29.71 in 10.0 mi SW 3.5 mph - N/A   Clear
7:56 PM 61.0 °F 57.9 °F 90% 29.76 in 10.0 mi Calm Calm - N/A   Clear
8:56 PM 57.9 °F 53.1 °F 84% 29.79 in 10.0 mi WNW 5.8 mph - N/A   Unknown
9:56 PM 55.9 °F 48.9 °F 77% 29.82 in 10.0 mi WNW 5.8 mph - N/A   Clear
10:56 PM 57.0 °F 46.0 °F 67% 29.84 in 10.0 mi NW 6.9 mph - N/A   Clear
11:56 PM 57.0 °F 43.0 °F 59% 29.86 in 10.0 mi NW 6.9 mph - N/A   Clear